Regional Weather Roundup
Issued by NWS

Home | Current Version | Previous Version | Text Only | Print | Product List | Glossary Off
Versions: 1 2 3 4 5 6 7 8 9 10 11 12 13 14 15 16 17 18 19 20 21 22 23 24 25 26 27 28 29 30 31 32 33 34 35 36 37 38 39 40 41 42 43 44 45 46 47 48 49

000
ASUS45 KBOU 201507
RWRCO

WEATHER ROUNDUP FOR COLORADO
NATIONAL WEATHER SERVICE DENVER/BOULDER CO
900 AM MDT SAT SEP 20 2014

NOTE: "FAIR" INDICATES FEW OR NO CLOUDS BELOW 12000 FEET WITH NO
SIGNIFICANT WEATHER AND/OR OBSTRUCTIONS TO VISIBILITY.

COZ001>005-013-030-031-201600-
...NORTHWEST COLORADO...

CITY           SKY/WX    TMP DP  RH WIND       PRES   REMARKS
CRAIG          SUNNY     51  43  74 CALM      30.33S
HAYDEN         SUNNY     54  41  62 N6        30.33S
MEEKER         NOT AVBL
MOUNT WERNER   NOT AVBL
STEAMBOAT SPGS SUNNY     50  39  67 CALM      30.35R
WALDEN         SUNNY     46  37  71 CALM      30.41S
$$

COZ006>008-011-201600-
...WEST CENTRAL VALLEYS...

CITY           SKY/WX    TMP DP  RH WIND       PRES   REMARKS
GRAND JUNCTION SUNNY     69  44  40 SE12      30.17R
MONTROSE       SUNNY     63  45  51 CALM      30.25R
EAGLE          SUNNY     55  45  67 CALM      30.37R
RIFLE          SUNNY     60  44  55 CALM      30.25S
DELTA          SUNNY     66  44  45 NE3       30.22S
NUCLA          SUNNY     61  43  51 CALM      30.25S
$$

COZ017>023-064>068-201600-
...SOUTHWEST COLORADO...

CITY           SKY/WX    TMP DP  RH WIND       PRES   REMARKS
DURANGO        SUNNY     60  44  55 E5        30.26R
CORTEZ         SUNNY     61  47  59 E5        30.20R
PAGOSA SPRINGS SUNNY     60  43  52 CALM      30.33R
TELLURIDE      NOT AVBL
WOLF CREEK PAS SUNNY     50  34  53 NE14      30.63R
$$

COZ009-010-012-014-032>034-037-058>063-201600-
...CENTRAL COLORADO...

CITY           SKY/WX    TMP DP  RH WIND       PRES   REMARKS
ASPEN          SUNNY     57  41  55 CALM      30.37S
BUENA VISTA    SUNNY     59  38  46 N6        30.40S
COPPER MTN     SUNNY     54  34  47 SW6       30.66R
BERTHOUD PASS  FAIR      41  39  93 N5        30.70R
COTTONWOOD PAS SUNNY     61  36  39 SE5       30.51S
GUNNISON       SUNNY     48  37  66 CALM      30.42R
KREMMLING      SUNNY     50  37  62 CALM      30.41S
LEADVILLE      SUNNY     51  37  58 CALM      30.51R
MONARCH PASS   SUNNY     50  36  57 E15       30.74R
SALIDA         SUNNY     58  40  49 N3        30.45S
SUNLIGHT       SUNNY     54  41  62 E5        30.58R
WILKERSON PASS NOT AVBL
$$

COZ069>075-201600-
...SAN LUIS VALLEY/SANGRE DE CRISTO MOUNTAINS...

CITY           SKY/WX    TMP DP  RH WIND       PRES   REMARKS
ALAMOSA        SUNNY     60  40  47 NW3       30.35R
LA VETA PASS   SUNNY     63  34  34 NE5       30.52R
SAGUACHE       NOT AVBL
$$

COZ035-036-038>040-201600-
...NORTHERN COLORADO FRONT RANGE...

CITY           SKY/WX    TMP DP  RH WIND       PRES   REMARKS
DENVER INTL AP MOSUNNY   62  48  60 N8        30.27R
DMNS CITY PARK   N/A     64  48  57 N6G12     30.27R
AURORA         MOSUNNY   62  49  62 N8        30.28R
FRONT RANGE AP NOT AVBL
ERIE MUNI ARPT SUNNY     65  48  54 N7        30.26R
BOULDER MUN AP SUNNY     64  46  52 N7        30.27R
CENTENNIAL     MOSUNNY   62  49  62 N13       30.28R
BROOMFIELD     SUNNY     64  48  55 N12G17    30.29R
FORT COLLINS   SUNNY     63  46  55 NW6       30.27R
LONGMONT       SUNNY     69  48  47 N6        30.28R
$$

COZ041-046-047-076>085-087-088-201600-
...PIKES PEAK/PALMER DIVIDE AND SOUTHERN FOOTHILLS...

CITY           SKY/WX    TMP DP  RH WIND       PRES   REMARKS
COLO. SPRINGS  SUNNY     75  45  34 NW6       30.25R
A. F. ACADEMY  SUNNY     69  45  42 N10       30.28R
ELLICOTT       NOT AVBL
FALCON         SUNNY     71  41  33 N12       30.31R
FORT CARSON    SUNNY     73  47  39 N8        30.22R
LIMON          SUNNY     65  49  56 N14G23    30.22R
MONUMENT HILL  SUNNY     59  43  55 NW16      30.32R
TRINIDAD       SUNNY     68  47  46 VRB5      30.21R
$$

COZ042>045-048>051-090-091-201600-
...NORTHEAST COLORADO...

CITY           SKY/WX    TMP DP  RH WIND       PRES   REMARKS
GREELEY ARPT   SUNNY     64  46  52 CALM      30.24R
AKRON          SUNNY     66  49  54 NE17      30.18R
BURLINGTON     SUNNY     67  53  61 N17G26    30.12R
WRAY           SUNNY     71  50  47 N15G23    30.13R
STERLING       SUNNY     68  54  60 NE8       30.16R
HOLYOKE        SUNNY     73  52  46 N12       30.14R
FORT MORGAN    SUNNY     66  47  51 NE15      30.20R
$$

COZ086-089-092>099-201600-
...SOUTHEAST COLORADO...

CITY           SKY/WX    TMP DP  RH WIND       PRES   REMARKS
PUEBLO         SUNNY     69  47  45 SW8       30.15R
LA JUNTA       SUNNY     71  52  50 W6        30.12R
LAMAR          SUNNY     68  60  75 W7        30.07R
SPRINGFIELD      N/A     72  56  57 NW14      30.09R
$$


USA.gov is the U.S. government's official web portal to all federal, state and local government web resources and services.